OpenBCM V1.13 (Linux)

Packet Radio Mailbox

DB0FHN

[JN59NK Nuernberg]

 Login: GUEST





  
UR7IWZ > KEPS     21.02.03 14:13l 207 Lines 5449 Bytes #999 (0) @ AMSAT
BID : ORB03051.W
Read: DB0FHN GUEST
Subj: Orbital Elements  03051.WEATHER
Path: DB0FHN<DB0ZWI<DB0HST<ON0DXC<WA7V<RZ6HXA<UR7IWZ
Sent: 030221/0820Z @:UR7IWZ.DON.UKR.EU #:64993 XFBB7.04 Bid:ORB03051.W
From: UR7IWZ@UR7IWZ.DON.UKR.EU
To  : KEPS@AMSAT


HR AMSAT ORBITAL ELEMENTS FOR WEATHER SATELLITES
FROM WA5QGD FORT WORTH,TX February 20, 2003
SEND SUBSCRIBE/UNSUBSCRIBE TO majordomo@amsat.org ONLY
BID: ORB03051.W
TO ALL RADIO AMATEURS BT

Satellite: NOAA-10
Catalog number: 16969
Epoch time:      03050.88052483
Element set:     667
Inclination:       98.7300 deg
RA of node:        44.9875 deg
Eccentricity:    0.0013445
Arg of perigee:    83.5512 deg
Mean anomaly:     276.7198 deg
Mean motion:   14.27065657 rev/day
Decay rate:       2.16e-06 rev/day^2
Epoch rev:           85409
Checksum:              330

Satellite: NOAA-11
Catalog number: 19531
Epoch time:      03050.85567988
Element set:     505
Inclination:       98.9010 deg
RA of node:       132.2340 deg
Eccentricity:    0.0011531
Arg of perigee:   195.2043 deg
Mean anomaly:     164.8784 deg
Mean motion:   14.14538913 rev/day
Decay rate:       2.15e-06 rev/day^2
Epoch rev:           74298
Checksum:              297

Satellite: NOAA-12
Catalog number: 21263
Epoch time:      03050.88788934
Element set:     974
Inclination:       98.6263 deg
RA of node:        40.4924 deg
Eccentricity:    0.0013473
Arg of perigee:    21.2980 deg
Mean anomaly:     338.8757 deg
Mean motion:   14.25083621 rev/day
Decay rate:       4.15e-06 rev/day^2
Epoch rev:           61140
Checksum:              302

Satellite: MET-3/5
Catalog number: 21655
Epoch time:      03049.97807585
Element set:    0505
Inclination:      082.5544 deg
RA of node:       038.5689 deg
Eccentricity:    0.0012709
Arg of perigee:   193.6291 deg
Mean anomaly:     166.4489 deg
Mean motion:   13.16980672 rev/day
Decay rate:        5.1e-07 rev/day^2
Epoch rev:           55353
Checksum:              338

Satellite: MET-2/21
Catalog number: 22782
Epoch time:      03050.83633253
Element set:     522
Inclination:       82.5464 deg
RA of node:       213.8875 deg
Eccentricity:    0.0022135
Arg of perigee:   346.1111 deg
Mean anomaly:      13.9428 deg
Mean motion:   13.83532476 rev/day
Decay rate:        3.1e-07 rev/day^2
Epoch rev:           47826
Checksum:              280

Satellite: OKEAN-4
Catalog number: 23317
Epoch time:      03049.91925603
Element set:    0229
Inclination:      082.5428 deg
RA of node:       328.5940 deg
Eccentricity:    0.0024633
Arg of perigee:   052.1047 deg
Mean anomaly:     308.2381 deg
Mean motion:   14.80919820 rev/day
Decay rate:      1.802e-05 rev/day^2
Epoch rev:           45015
Checksum:              283

Satellite: NOAA-14
Catalog number: 23455
Epoch time:      03050.89006971
Element set:     528
Inclination:       99.1867 deg
RA of node:        69.4939 deg
Eccentricity:    0.0008621
Arg of perigee:   224.4694 deg
Mean anomaly:     135.5785 deg
Mean motion:   14.13298340 rev/day
Decay rate:       1.74e-06 rev/day^2
Epoch rev:           41966
Checksum:              332

Satellite: SICH-1
Catalog number: 23657
Epoch time:      03050.87011649
Element set:     986
Inclination:       82.5298 deg
RA of node:       108.4891 deg
Eccentricity:    0.0025968
Arg of perigee:    31.1883 deg
Mean anomaly:     329.0864 deg
Mean motion:   14.79969467 rev/day
Decay rate:      1.535e-05 rev/day^2
Epoch rev:           40242
Checksum:              339

Satellite: NOAA-15
Catalog number: 25338
Epoch time:      03050.86280227
Element set:      11
Inclination:       98.5499 deg
RA of node:        72.9780 deg
Eccentricity:    0.0010056
Arg of perigee:   318.0440 deg
Mean anomaly:      41.9968 deg
Mean motion:   14.24246416 rev/day
Decay rate:       2.62e-06 rev/day^2
Epoch rev:           24798
Checksum:              302

Satellite: RESURS
Catalog number: 25394
Epoch time:      03050.90078693
Element set:     452
Inclination:       98.6308 deg
RA of node:       128.8045 deg
Eccentricity:    0.0002412
Arg of perigee:    99.9514 deg
Mean anomaly:     260.1936 deg
Mean motion:   14.23878895 rev/day
Decay rate:       1.66e-06 rev/day^2
Epoch rev:           23972
Checksum:              319

Satellite: FENGYUN1
Catalog number: 25730
Epoch time:      03051.42496472
Element set:     771
Inclination:       98.6336 deg
RA of node:        75.7544 deg
Eccentricity:    0.0014399
Arg of perigee:     1.2613 deg
Mean anomaly:     358.8593 deg
Mean motion:   14.11734454 rev/day
Decay rate:        1.4e-07 rev/day^2
Epoch rev:           19489
Checksum:              307

Satellite: OKEAN-0
Catalog number: 25860
Epoch time:      03049.97516548
Element set:    0069
Inclination:      097.8641 deg
RA of node:       097.4981 deg
Eccentricity:    0.0002058
Arg of perigee:   074.2227 deg
Mean anomaly:     285.9208 deg
Mean motion:   14.72611309 rev/day
Decay rate:       9.23e-06 rev/day^2
Epoch rev:           19299
Checksum:              331

Satellite: NOAA-16
Catalog number: 26536
Epoch time:      03051.77871615
Element set:     215
Inclination:       98.9037 deg
RA of node:         0.0455 deg
Eccentricity:    0.0009962
Arg of perigee:   303.1718 deg
Mean anomaly:      56.8495 deg
Mean motion:   14.11905750 rev/day
Decay rate:       2.67e-06 rev/day^2
Epoch rev:           12446
Checksum:              299

Satellite: NOAA-17
Catalog number: 27453
Epoch time:      03050.90130354
Element set:     309
Inclination:       98.7560 deg
RA of node:       122.1056 deg
Eccentricity:    0.0011736
Arg of perigee:   357.3889 deg
Mean anomaly:       2.7225 deg
Mean motion:   14.23295049 rev/day
Decay rate:       2.97e-06 rev/day^2
Epoch rev:            3415
Checksum:              285



Read previous mail | Read next mail


 11.09.2026 17:50:35lGo back Go up